| time (UTC) | temp F | wind direction | speed knots | gust knots | rain 1hr in | rain 24hr in | rain mn in | humidity % | barometer mb |
| 20260506080806 | 52 | 18 | 6.1 | 9.6 | 0.00 | 0.01 | 0.01 | 86 | 1008.2 |
| 20260506080307 | 51 | 0 | 3.5 | 8.7 | 0.00 | 0.01 | 0.01 | 87 | 1008.1 |
| 20260506073304 | 50 | 18 | 4.3 | 8.7 | 0.00 | 0.01 | 0.01 | 88 | 1007.9 |
| 20260506072804 | 50 | 11 | 4.3 | 8.7 | 0.00 | 0.01 | 0.01 | 88 | 1007.9 |
| 20260506072305 | 50 | 6 | 4.3 | 8.7 | 0.00 | 0.01 | 0.01 | 89 | 1007.9 |
| 20260506071804 | 50 | 17 | 4.3 | 8.7 | 0.00 | 0.01 | 0.01 | 89 | 1008.0 |
| 20260506071522 | 49 | 0 | 5.2 | 7.8 | 0.00 | 0.01 | 0.01 | 90 | 1008.0 |
| 20260506071412 | 50 | 3 | 5.2 | 8.7 | 0.00 | 0.01 | 0.01 | 89 | 1008.0 |
| 20260506071141 | 50 | 13 | 4.3 | 8.7 | 0.00 | 0.01 | 0.01 | 89 | 1007.9 |
| 20260506062305 | 48 | 1 | 4.3 | 5.2 | 0.00 | 0.01 | 0.01 | 92 | 1007.8 |
| 20260506061804 | 48 | 16 | 3.5 | 6.1 | 0.00 | 0.01 | 0.01 | 92 | 1007.8 |
| 20260506061319 | 48 | 23 | 3.5 | 7.8 | 0.00 | 0.01 | 0.01 | 92 | 1007.7 |
| 20260506060803 | 48 | 16 | 4.3 | 7.8 | 0.00 | 0.01 | 0.01 | 92 | 1007.7 |
| 20260506060303 | 48 | 7 | 4.3 | 7.8 | 0.00 | 0.01 | 0.01 | 92 | 1007.7 |
| 20260506051302 | 48 | 7 | 6.1 | 9.6 | 0.00 | 0.01 | 0.01 | 92 | 1007.7 |
| 20260506051048 | 47 | 14 | 5.2 | 8.7 | 0.00 | 0.01 | 0.01 | 92 | 1007.7 |
| 20260506050301 | 47 | 358 | 4.3 | 11.3 | 0.00 | 0.01 | 0.01 | 92 | 1007.7 |
| 20260506045055 | 47 | 31 | 4.3 | 10.4 | 0.00 | 0.01 | 0.01 | 92 | 1007.6 |
| 20260506044315 | 47 | 25 | 5.2 | 9.6 | 0.00 | 0.01 | 0.01 | 92 | 1007.6 |
| 20260506043800 | 47 | 14 | 4.3 | 8.7 | 0.00 | 0.01 | 0.01 | 92 | 1007.5 |
| 20260506043614 | 47 | 25 | 3.5 | 10.4 | 0.00 | 0.01 | 0.01 | 92 | 1007.5 |
| 20260506042800 | 47 | 16 | 7.0 | 11.3 | 0.00 | 0.01 | 0.01 | 92 | 1007.6 |
| 20260506042300 | 47 | 7 | 6.1 | 11.3 | 0.00 | 0.01 | 0.01 | 92 | 1007.5 |
| 20260506041813 | 47 | 11 | 4.3 | 10.4 | 0.01 | 0.01 | 0.01 | 92 | 1007.5 |
| 20260506041313 | 47 | 24 | 5.2 | 9.6 | 0.01 | 0.01 | 0.01 | 91 | 1007.5 |
| 20260506040800 | 47 | 17 | 5.2 | 9.6 | 0.01 | 0.01 | 0.01 | 91 | 1007.5 |
| 20260506040259 | 47 | 28 | 6.1 | 9.6 | 0.01 | 0.01 | 0.01 | 91 | 1007.7 |
| 20260506035759 | 47 | 1 | 5.2 | 9.6 | 0.01 | 0.00 | 0.01 | 91 | 1007.6 |
| 20260506035259 | 47 | 0 | 5.2 | 9.6 | 0.01 | 0.00 | 0.01 | 91 | 1007.6 |
| 20260506034759 | 47 | 27 | 5.2 | 9.6 | 0.01 | 0.00 | 0.01 | 91 | 1007.7 |
| 20260506034312 | 47 | 37 | 4.3 | 9.6 | 0.01 | 0.00 | 0.01 | 91 | 1007.6 |
| 20260506033759 | 48 | 13 | 5.2 | 10.4 | 0.01 | 0.00 | 0.01 | 91 | 1007.7 |
| 20260506033259 | 48 | 0 | 5.2 | 10.4 | 0.01 | 0.00 | 0.01 | 91 | 1007.8 |
| 20260506032759 | 48 | 10 | 5.2 | 7.8 | 0.01 | 0.00 | 0.01 | 91 | 1007.8 |
| 20260506032301 | 48 | 353 | 3.5 | 8.7 | 0.01 | 0.00 | 0.01 | 90 | 1007.8 |
| 20260506031759 | 48 | 32 | 4.3 | 8.7 | 0.00 | 0.00 | 0.00 | 90 | 1007.8 |
| 20260506031259 | 48 | 13 | 4.3 | 8.7 | 0.00 | 0.00 | 0.00 | 90 | 1007.8 |
| 20260506030800 | 48 | 38 | 4.3 | 8.7 | 0.00 | 0.00 | 0.00 | 89 | 1007.9 |
| 20260506030628 | 48 | 17 | 2.6 | 7.8 | 0.00 | 0.00 | 0.00 | 89 | 1007.9 |
| 20260506025800 | 48 | 34 | 3.5 | 8.7 | 0.00 | 0.00 | 0.00 | 88 | 1007.9 |
| 20260506025300 | 49 | 37 | 4.3 | 8.7 | 0.00 | 0.00 | 0.00 | 88 | 1007.9 |
| 20260506024758 | 49 | 28 | 5.2 | 9.6 | 0.00 | 0.00 | 0.00 | 87 | 1008.0 |
| 20260506024258 | 49 | 16 | 3.5 | 10.4 | 0.00 | 0.00 | 0.00 | 86 | 1007.9 |
| 20260506023758 | 49 | 23 | 4.3 | 10.4 | 0.00 | 0.00 | 0.00 | 86 | 1008.0 |
| 20260506023547 | 49 | 0 | 3.5 | 8.7 | 0.00 | 0.00 | 0.00 | 87 | 1007.9 |
| 20260506022846 | 49 | 20 | 4.3 | 8.7 | 0.00 | 0.00 | 0.00 | 86 | 1008.0 |
| 20260506022257 | 49 | 23 | 4.3 | 8.7 | 0.00 | 0.00 | 0.00 | 87 | 1008.0 |
| 20260506022104 | 49 | 14 | 5.2 | 8.7 | 0.00 | 0.00 | 0.00 | 86 | 1008.0 |
| 20260506021257 | 49 | 45 | 5.2 | 8.7 | 0.00 | 0.00 | 0.00 | 86 | 1008.1 |
| 20260506020808 | 49 | 11 | 4.3 | 10.4 | 0.00 | 0.00 | 0.00 | 85 | 1008.1 |
| 20260506020256 | 49 | 17 | 6.1 | 10.4 | 0.00 | 0.00 | 0.00 | 84 | 1008.1 |
| 20260506015812 | 49 | 21 | 3.5 | 7.8 | 0.00 | 0.00 | 0.00 | 84 | 1008.1 |
| 20260506015611 | 49 | 14 | 4.3 | 7.8 | 0.00 | 0.00 | 0.00 | 84 | 1008.1 |
| 20260506014756 | 49 | 13 | 3.5 | 8.7 | 0.00 | 0.00 | 0.00 | 84 | 1008.1 |
| 20260506014256 | 49 | 25 | 6.1 | 9.6 | 0.00 | 0.00 | 0.00 | 84 | 1008.0 |
| 20260506014152 | 49 | 30 | 3.5 | 8.7 | 0.00 | 0.00 | 0.00 | 84 | 1008.2 |
| 20260506014144 | 49 | 20 | 5.2 | 9.6 | 0.00 | 0.00 | 0.00 | 84 | 1008.2 |
| 20260506012757 | 49 | 27 | 4.3 | 9.6 | 0.00 | 0.00 | 0.00 | 83 | 1008.2 |
| 20260506012257 | 49 | 59 | 4.3 | 9.6 | 0.00 | 0.00 | 0.00 | 83 | 1008.2 |
| 20260506011755 | 49 | 28 | 2.6 | 9.6 | 0.00 | 0.00 | 0.00 | 83 | 1008.2 |
| 20260506011255 | 49 | 17 | 3.5 | 10.4 | 0.00 | 0.00 | 0.00 | 83 | 1008.2 |
| 20260506010755 | 49 | 34 | 5.2 | 10.4 | 0.00 | 0.00 | 0.00 | 82 | 1008.2 |
| 20260506010255 | 49 | 30 | 5.2 | 10.4 | 0.00 | 0.00 | 0.00 | 82 | 1008.2 |
| 20260506005755 | 50 | 21 | 6.1 | 10.4 | 0.00 | 0.00 | 0.00 | 82 | 1008.2 |
| 20260506005257 | 50 | 23 | 7.0 | 10.4 | 0.00 | 0.00 | 0.00 | 82 | 1008.3 |
| 20260506004756 | 50 | 41 | 5.2 | 9.6 | 0.00 | 0.00 | 0.00 | 81 | 1008.3 |
| 20260506004555 | 50 | 8 | 3.5 | 9.6 | 0.00 | 0.00 | 0.00 | 81 | 1008.4 |
| 20260506003754 | 50 | 23 | 3.5 | 7.8 | 0.00 | 0.00 | 0.00 | 81 | 1008.4 |
| 20260506003254 | 50 | 0 | 5.2 | 10.4 | 0.00 | 0.00 | 0.00 | 81 | 1008.4 |
| 20260506002754 | 50 | 0 | 4.3 | 10.4 | 0.00 | 0.00 | 0.00 | 81 | 1008.4 |
| 20260506002257 | 50 | 10 | 5.2 | 9.6 | 0.00 | 0.00 | 0.00 | 81 | 1008.5 |
| 20260506001754 | 50 | 30 | 5.2 | 9.6 | 0.00 | 0.00 | 0.00 | 81 | 1008.5 |
| 20260506001254 | 50 | 13 | 5.2 | 9.6 | 0.00 | 0.01 | 0.00 | 81 | 1008.5 |
| 20260506000755 | 50 | 20 | 4.3 | 7.8 | 0.00 | 0.01 | 0.00 | 81 | 1008.6 |
| 20260506000255 | 50 | 20 | 3.5 | 11.3 | 0.00 | 0.01 | 0.00 | 81 | 1008.7 |
| 20260505235758 | 50 | 17 | 3.5 | 11.3 | 0.00 | 0.01 | 0.00 | 80 | 1008.7 |
| 20260505235254 | 50 | 25 | 3.5 | 9.6 | 0.00 | 0.02 | 0.00 | 80 | 1008.8 |
| 20260505234834 | 50 | 4 | 5.2 | 8.7 | 0.00 | 0.02 | 0.00 | 80 | 1008.7 |
| 20260505234820 | 50 | 23 | 3.5 | 9.6 | 0.00 | 0.02 | 0.00 | 81 | 1008.7 |
| 20260505233752 | 50 | 32 | 3.5 | 8.7 | 0.00 | 0.03 | 0.00 | 81 | 1008.8 |
| 20260505233254 | 50 | 35 | 5.2 | 8.7 | 0.00 | 0.03 | 0.00 | 80 | 1008.8 |
| 20260505232806 | 50 | 0 | 4.3 | 10.4 | 0.00 | 0.03 | 0.00 | 80 | 1008.7 |
| 20260505232253 | 51 | 24 | 3.5 | 10.4 | 0.00 | 0.03 | 0.00 | 80 | 1008.8 |
| 20260505231753 | 51 | 8 | 3.5 | 7.8 | 0.00 | 0.03 | 0.00 | 80 | 1008.8 |
| 20260505231252 | 51 | 7 | 4.3 | 9.6 | 0.00 | 0.03 | 0.00 | 80 | 1008.8 |
| 20260505230752 | 51 | 11 | 3.5 | 9.6 | 0.00 | 0.03 | 0.00 | 79 | 1008.9 |
| 20260505230252 | 51 | 21 | 5.2 | 8.7 | 0.00 | 0.03 | 0.00 | 79 | 1008.9 |
| 20260505225752 | 51 | 30 | 4.3 | 8.7 | 0.00 | 0.03 | 0.00 | 80 | 1008.9 |
| 20260505225250 | 51 | 38 | 4.3 | 8.7 | 0.00 | 0.03 | 0.00 | 79 | 1008.9 |
| 20260505224752 | 51 | 16 | 4.3 | 8.7 | 0.00 | 0.03 | 0.00 | 79 | 1009.0 |
| 20260505224251 | 51 | 13 | 4.3 | 9.6 | 0.00 | 0.03 | 0.00 | 79 | 1009.0 |
| 20260505223752 | 51 | 30 | 5.2 | 9.6 | 0.00 | 0.03 | 0.00 | 80 | 1009.1 |
| 20260505223251 | 51 | 18 | 6.1 | 9.6 | 0.00 | 0.03 | 0.00 | 79 | 1009.0 |
| 20260505222752 | 51 | 28 | 5.2 | 9.6 | 0.00 | 0.03 | 0.00 | 80 | 1009.0 |
| 20260505222252 | 51 | 42 | 3.5 | 8.7 | 0.00 | 0.03 | 0.00 | 80 | 1009.0 |
| 20260505221750 | 51 | 27 | 5.2 | 10.4 | 0.00 | 0.03 | 0.00 | 80 | 1009.0 |
| 20260505221251 | 51 | 7 | 5.2 | 10.4 | 0.00 | 0.04 | 0.00 | 79 | 1009.0 |
| 20260505220913 | 51 | 39 | 3.5 | 7.8 | 0.00 | 0.04 | 0.00 | 80 | 1009.1 |
| 20260505220846 | 51 | 28 | 5.2 | 8.7 | 0.00 | 0.04 | 0.00 | 80 | 1009.1 |
| 20260505215751 | 51 | 39 | 3.5 | 7.8 | 0.00 | 0.05 | 0.05 | 80 | 1009.1 |
| 20260505215250 | 51 | 28 | 3.5 | 9.6 | 0.00 | 0.05 | 0.05 | 80 | 1009.2 |
| 20260505214749 | 52 | 34 | 5.2 | 10.4 | 0.00 | 0.06 | 0.05 | 80 | 1009.2 |
| 20260505214250 | 52 | 21 | 3.5 | 10.4 | 0.00 | 0.07 | 0.05 | 81 | 1009.4 |
| 20260505213750 | 52 | 11 | 2.6 | 5.2 | 0.00 | 0.09 | 0.05 | 81 | 1009.3 |
| 20260505213249 | 52 | 18 | 3.5 | 6.1 | 0.00 | 0.13 | 0.05 | 81 | 1009.3 |
| 20260505212750 | 52 | 28 | 4.3 | 7.8 | 0.00 | 0.17 | 0.05 | 80 | 1009.3 |
| 20260505212250 | 52 | 24 | 3.5 | 10.4 | 0.00 | 0.20 | 0.05 | 80 | 1009.3 |
| 20260505211751 | 52 | 28 | 4.3 | 10.4 | 0.00 | 0.20 | 0.05 | 80 | 1009.3 |
| 20260505211249 | 52 | 38 | 4.3 | 9.6 | 0.00 | 0.23 | 0.05 | 79 | 1009.4 |
| 20260505211153 | 52 | 49 | 4.3 | 9.6 | 0.00 | 0.25 | 0.05 | 79 | 1009.3 |
| 20260505210250 | 52 | 8 | 4.3 | 9.6 | 0.00 | 0.29 | 0.05 | 79 | 1009.4 |
| 20260505205750 | 52 | 30 | 4.3 | 9.6 | 0.00 | 0.36 | 0.05 | 79 | 1009.4 |
| 20260505205248 | 52 | 42 | 5.2 | 9.6 | 0.00 | 0.40 | 0.05 | 78 | 1009.5 |
| 20260505204748 | 53 | 3 | 5.2 | 9.6 | 0.00 | 0.43 | 0.05 | 78 | 1009.3 |
| 20260505204248 | 53 | 39 | 4.3 | 8.7 | 0.00 | 0.46 | 0.05 | 78 | 1009.4 |
| 20260505203749 | 53 | 25 | 3.5 | 11.3 | 0.00 | 0.46 | 0.05 | 79 | 1009.3 |
| 20260505203247 | 53 | 35 | 6.1 | 11.3 | 0.00 | 0.46 | 0.05 | 78 | 1009.3 |
| 20260505202749 | 53 | 37 | 4.3 | 10.4 | 0.00 | 0.46 | 0.05 | 80 | 1009.4 |
| 20260505202248 | 53 | 37 | 6.1 | 10.4 | 0.00 | 0.46 | 0.05 | 82 | 1009.3 |
| 20260505201747 | 53 | 24 | 2.6 | 4.3 | 0.00 | 0.47 | 0.05 | 84 | 1009.3 |
| 20260505201248 | 53 | 45 | 1.7 | 4.3 | 0.00 | 0.50 | 0.05 | 85 | 1009.2 |
| 20260505201053 | 53 | 55 | 2.6 | 4.3 | 0.00 | 0.54 | 0.05 | 85 | 1009.3 |
| 20260505200246 | 53 | 25 | 1.7 | 3.5 | 0.00 | 0.55 | 0.05 | 86 | 1009.2 |
| 20260505195747 | 53 | 38 | 1.7 | 2.6 | 0.00 | 0.55 | 0.05 | 86 | 1009.2 |
| 20260505195246 | 53 | 14 | 1.7 | 3.5 | 0.00 | 0.55 | 0.05 | 86 | 1009.2 |
| 20260505195041 | 53 | 17 | 1.7 | 4.3 | 0.00 | 0.55 | 0.05 | 86 | 1009.1 |
| 20260505194301 | 53 | 16 | 2.6 | 4.3 | 0.00 | 0.55 | 0.05 | 86 | 1009.0 |
| 20260505194043 | 53 | 34 | 1.7 | 2.6 | 0.00 | 0.55 | 0.05 | 86 | 1009.0 |
| 20260505193249 | 53 | 37 | 0.9 | 2.6 | 0.00 | 0.55 | 0.05 | 85 | 1009.0 |
| 20260505192750 | 53 | 35 | 1.7 | 2.6 | 0.00 | 0.55 | 0.05 | 86 | 1009.0 |
| 20260505192246 | 53 | 32 | 1.7 | 2.6 | 0.00 | 0.55 | 0.05 | 86 | 1009.0 |
| 20260505191746 | 53 | 31 | 1.7 | 2.6 | 0.00 | 0.55 | 0.05 | 85 | 1008.8 |
| 20260505191546 | 53 | 30 | 0.9 | 1.7 | 0.00 | 0.55 | 0.05 | 85 | 1008.9 |
| 20260505190747 | 53 | 28 | 0.0 | 0.9 | 0.00 | 0.55 | 0.05 | 85 | 1008.9 |
| 20260505190246 | 53 | 28 | 0.0 | 0.0 | 0.00 | 0.55 | 0.05 | 85 | 1008.9 |
| 20260505185745 | 53 | 28 | 0.0 | 0.0 | 0.00 | 0.55 | 0.05 | 85 | 1008.9 |
| 20260505185244 | 54 | 32 | 0.0 | 0.0 | 0.00 | 0.55 | 0.05 | 85 | 1008.8 |
| 20260505184753 | 54 | 42 | 0.0 | 0.0 | 0.00 | 0.55 | 0.05 | 85 | 1009.0 |
| 20260505184528 | 54 | 44 | 0.0 | 2.6 | 0.00 | 0.55 | 0.05 | 84 | 1008.8 |
| 20260505183745 | 54 | 52 | 0.0 | 3.5 | 0.00 | 0.55 | 0.05 | 84 | 1008.8 |
| 20260505183244 | 54 | 52 | 1.7 | 3.5 | 0.00 | 0.55 | 0.05 | 84 | 1008.9 |
| 20260505182746 | 54 | 55 | 1.7 | 4.3 | 0.00 | 0.55 | 0.05 | 84 | 1008.8 |
| 20260505182245 | 54 | 42 | 2.6 | 4.3 | 0.00 | 0.55 | 0.05 | 83 | 1008.8 |
| 20260505181745 | 54 | 51 | 1.7 | 4.3 | 0.00 | 0.55 | 0.05 | 83 | 1008.9 |
| 20260505181529 | 54 | 72 | 1.7 | 4.3 | 0.00 | 0.55 | 0.05 | 84 | 1008.8 |
| 20260505180745 | 54 | 55 | 0.9 | 4.3 | 0.00 | 0.55 | 0.05 | 83 | 1008.8 |
| 20260505180245 | 54 | 55 | 1.7 | 5.2 | 0.00 | 0.55 | 0.05 | 83 | 1008.8 |
| 20260505175745 | 54 | 45 | 3.5 | 6.1 | 0.00 | 0.55 | 0.05 | 83 | 1008.7 |
| 20260505175543 | 54 | 59 | 4.3 | 6.1 | 0.00 | 0.55 | 0.05 | 83 | 1008.7 |
| 20260505174743 | 54 | 52 | 3.5 | 5.2 | 0.00 | 0.55 | 0.05 | 83 | 1008.7 |
| 20260505174244 | 54 | 66 | 2.6 | 5.2 | 0.00 | 0.55 | 0.05 | 82 | 1008.7 |
| 20260505173743 | 54 | 41 | 2.6 | 8.7 | 0.00 | 0.55 | 0.05 | 83 | 1008.7 |
| 20260505173253 | 54 | 58 | 3.5 | 8.7 | 0.00 | 0.55 | 0.05 | 83 | 1008.8 |
| 20260505172742 | 54 | 49 | 2.6 | 6.1 | 0.00 | 0.55 | 0.05 | 83 | 1008.9 |
| 20260505172242 | 53 | 44 | 2.6 | 5.2 | 0.00 | 0.55 | 0.05 | 83 | 1008.9 |
| 20260505171742 | 53 | 35 | 1.7 | 8.7 | 0.00 | 0.55 | 0.05 | 83 | 1008.8 |
| 20260505171242 | 53 | 68 | 5.2 | 8.7 | 0.00 | 0.55 | 0.05 | 83 | 1008.8 |
| 20260505170744 | 53 | 49 | 3.5 | 7.8 | 0.00 | 0.55 | 0.05 | 83 | 1008.8 |
| 20260505170251 | 54 | 58 | 3.5 | 8.7 | 0.00 | 0.55 | 0.05 | 83 | 1008.9 |
| 20260505165755 | 54 | 41 | 5.2 | 8.7 | 0.00 | 0.55 | 0.05 | 83 | 1008.9 |
| 20260505165243 | 54 | 30 | 3.5 | 7.8 | 0.00 | 0.55 | 0.05 | 83 | 1008.9 |
| 20260505164759 | 54 | 48 | 3.5 | 9.6 | 0.00 | 0.55 | 0.05 | 83 | 1009.0 |
| 20260505164250 | 54 | 48 | 4.3 | 9.6 | 0.00 | 0.55 | 0.05 | 83 | 1009.1 |
| 20260505163740 | 54 | 39 | 4.3 | 7.8 | 0.00 | 0.55 | 0.05 | 83 | 1009.3 |
| 20260505163241 | 54 | 48 | 3.5 | 9.6 | 0.00 | 0.55 | 0.05 | 84 | 1009.2 |
| 20260505162741 | 54 | 16 | 4.3 | 9.6 | 0.00 | 0.55 | 0.05 | 83 | 1009.1 |
| 20260505162241 | 54 | 49 | 5.2 | 8.7 | 0.00 | 0.55 | 0.05 | 84 | 1009.2 |
| 20260505161742 | 54 | 41 | 3.5 | 5.2 | 0.00 | 0.56 | 0.05 | 84 | 1009.2 |
| 20260505161243 | 53 | 38 | 3.5 | 9.6 | 0.00 | 0.57 | 0.05 | 84 | 1009.2 |
| 20260505160754 | 53 | 48 | 3.5 | 9.6 | 0.00 | 0.57 | 0.05 | 84 | 1009.2 |
| 20260505160242 | 53 | 44 | 5.2 | 9.6 | 0.00 | 0.57 | 0.05 | 85 | 1009.2 |
| 20260505153242 | 53 | 31 | 4.3 | 7.8 | 0.00 | 0.60 | 0.05 | 84 | 1009.3 |
| 20260505152740 | 53 | 32 | 4.3 | 7.8 | 0.00 | 0.60 | 0.05 | 85 | 1009.2 |
| 20260505152240 | 53 | 7 | 3.5 | 7.8 | 0.00 | 0.61 | 0.05 | 85 | 1009.3 |
| 20260505151740 | 53 | 27 | 3.5 | 8.7 | 0.00 | 0.62 | 0.05 | 85 | 1009.4 |
| 20260505151240 | 53 | 30 | 5.2 | 10.4 | 0.00 | 0.62 | 0.05 | 85 | 1009.6 |
| 20260505150741 | 53 | 41 | 5.2 | 10.4 | 0.00 | 0.63 | 0.05 | 86 | 1009.5 |
| 20260505150240 | 53 | 55 | 5.2 | 10.4 | 0.00 | 0.63 | 0.05 | 86 | 1009.4 |
| 20260505140239 | 53 | 62 | 4.3 | 8.7 | 0.00 | 0.65 | 0.05 | 87 | 1009.7 |
| 20260505124738 | 53 | 16 | 5.2 | 12.2 | 0.00 | 0.65 | 0.05 | 87 | 1010.1 |
| 20260505124236 | 52 | 34 | 7.0 | 12.2 | 0.00 | 0.65 | 0.05 | 87 | 1010.1 |
| 20260505123736 | 52 | 35 | 7.0 | 12.2 | 0.00 | 0.65 | 0.05 | 88 | 1010.1 |
| 20260505123236 | 52 | 30 | 6.1 | 11.3 | 0.00 | 0.65 | 0.05 | 88 | 1010.2 |
| 20260505122736 | 52 | 48 | 4.3 | 9.6 | 0.00 | 0.65 | 0.05 | 88 | 1010.2 |
| 20260505122556 | 52 | 35 | 5.2 | 13.9 | 0.00 | 0.65 | 0.05 | 89 | 1010.3 |
| 20260505121735 | 52 | 38 | 5.2 | 13.9 | 0.00 | 0.65 | 0.05 | 89 | 1010.2 |
| 20260505121240 | 51 | 38 | 6.1 | 13.0 | 0.00 | 0.65 | 0.05 | 89 | 1010.3 |
| 20260505121040 | 51 | 32 | 5.2 | 13.9 | 0.00 | 0.65 | 0.05 | 89 | 1010.2 |
| 20260505120237 | 51 | 41 | 5.2 | 13.9 | 0.00 | 0.65 | 0.05 | 89 | 1010.4 |
| 20260505115734 | 51 | 68 | 7.0 | 11.3 | 0.00 | 0.65 | 0.05 | 90 | 1010.4 |
| 20260505115252 | 51 | 28 | 6.1 | 11.3 | 0.00 | 0.65 | 0.05 | 89 | 1010.4 |
| 20260505114733 | 51 | 34 | 5.2 | 9.6 | 0.00 | 0.65 | 0.05 | 90 | 1010.3 |
| 20260505114259 | 51 | 34 | 6.1 | 9.6 | 0.00 | 0.65 | 0.05 | 90 | 1010.4 |
| 20260505113734 | 51 | 35 | 4.3 | 9.6 | 0.00 | 0.65 | 0.05 | 90 | 1010.4 |
| 20260505113233 | 51 | 41 | 5.2 | 13.0 | 0.00 | 0.65 | 0.05 | 90 | 1010.6 |
| 20260505112735 | 51 | 45 | 7.0 | 13.0 | 0.00 | 0.65 | 0.05 | 91 | 1010.5 |
| 20260505112234 | 50 | 45 | 6.1 | 11.3 | 0.00 | 0.65 | 0.05 | 91 | 1010.5 |
| 20260505111733 | 50 | 37 | 6.1 | 11.3 | 0.00 | 0.65 | 0.05 | 91 | 1010.6 |
| 20260505111236 | 50 | 52 | 7.0 | 11.3 | 0.00 | 0.65 | 0.05 | 91 | 1010.7 |
| 20260505110733 | 50 | 27 | 3.5 | 7.8 | 0.00 | 0.65 | 0.05 | 91 | 1010.6 |
| 20260505110234 | 50 | 37 | 4.3 | 7.8 | 0.00 | 0.65 | 0.05 | 91 | 1010.6 |
| 20260505101730 | 50 | 48 | 4.3 | 6.1 | 0.00 | 0.65 | 0.05 | 92 | 1010.7 |
| 20260505101230 | 50 | 28 | 3.5 | 10.4 | 0.00 | 0.65 | 0.05 | 92 | 1010.9 |
| 20260505100730 | 50 | 65 | 5.2 | 11.3 | 0.00 | 0.65 | 0.05 | 91 | 1010.8 |
| 20260505100541 | 50 | 30 | 7.0 | 11.3 | 0.00 | 0.65 | 0.05 | 92 | 1010.8 |
| 20260505095745 | 50 | 38 | 5.2 | 12.2 | 0.00 | 0.65 | 0.05 | 92 | 1010.8 |
| 20260505095231 | 50 | 42 | 6.1 | 12.2 | 0.00 | 0.65 | 0.05 | 92 | 1010.8 |
| 20260505094732 | 50 | 82 | 7.0 | 12.2 | 0.00 | 0.65 | 0.05 | 92 | 1010.9 |
| 20260505094231 | 50 | 42 | 7.0 | 12.2 | 0.00 | 0.65 | 0.05 | 92 | 1010.8 |
| 20260505093732 | 50 | 58 | 5.2 | 12.2 | 0.00 | 0.65 | 0.05 | 92 | 1010.7 |
| 20260505093229 | 50 | 28 | 4.3 | 10.4 | 0.00 | 0.65 | 0.05 | 92 | 1010.7 |
| 20260505092730 | 50 | 34 | 5.2 | 10.4 | 0.00 | 0.65 | 0.05 | 92 | 1010.7 |
| 20260505092231 | 50 | 34 | 3.5 | 6.1 | 0.00 | 0.65 | 0.05 | 92 | 1010.8 |
| 20260505091731 | 50 | 61 | 3.5 | 8.7 | 0.00 | 0.65 | 0.05 | 92 | 1010.6 |
| 20260505091231 | 50 | 56 | 3.5 | 8.7 | 0.00 | 0.65 | 0.05 | 93 | 1010.7 |
| 20260505090730 | 50 | 0 | 4.3 | 8.7 | 0.00 | 0.65 | 0.05 | 92 | 1010.8 |
| 20260505090230 | 50 | 10 | 5.2 | 8.7 | 0.00 | 0.65 | 0.05 | 92 | 1010.8 |
| 20260505085730 | 50 | 28 | 3.5 | 7.8 | 0.00 | 0.65 | 0.05 | 92 | 1010.8 |
| 20260505085230 | 50 | 44 | 2.6 | 11.3 | 0.00 | 0.65 | 0.05 | 93 | 1010.9 |
| 20260505084731 | 50 | 11 | 6.1 | 11.3 | 0.00 | 0.65 | 0.05 | 93 | 1010.8 |
| 20260505084527 | 50 | 51 | 2.6 | 11.3 | 0.00 | 0.65 | 0.05 | 93 | 1010.9 |
| 20260505083730 | 50 | 49 | 7.0 | 11.3 | 0.00 | 0.65 | 0.05 | 93 | 1010.9 |
| 20260505083520 | 50 | 45 | 4.3 | 9.6 | 0.00 | 0.65 | 0.05 | 93 | 1010.9 |
| 20260505082730 | 50 | 28 | 3.5 | 8.7 | 0.00 | 0.65 | 0.05 | 93 | 1010.8 |
| 20260505082231 | 50 | 62 | 5.2 | 6.1 | 0.00 | 0.65 | 0.05 | 93 | 1010.9 |
| 20260505081728 | 50 | 44 | 5.2 | 9.6 | 0.00 | 0.65 | 0.05 | 93 | 1010.8 |
| 20260505081521 | 50 | 68 | 4.3 | 9.6 | 0.00 | 0.65 | 0.05 | 93 | 1010.9 |